Tracking 19212 objects as of 17-Jul-2018
HD Live streaming from Space Station
objects crossing your sky now

FENGYUN 1C DEB

Track FENGYUN 1C DEB now!
10-day predictions


NORAD ID: 31024
Int'l Code: 1999-025BDS
Perigee: 784.5 km
Apogee: 895.3 km
Inclination: 99.2 °
Period: 101.6 minutes
Semi major axis: 7210 km
RCS: 0.01 m2 (small)
Launch date: May 10, 1999
Source: People's Republic of China (PRC)
Launch site: Taiyaun Space Center, China (TSC)

Note: This is SATELLITE DEBRIS
aabbcc
Your satellite tracking list
Your tracking list is empty




NASA's NSSDC Master Catalog

Two Line Element Set (TLE):
1 31024U 99025BDS 18194.86238769 +.00000074 +00000-0 +58198-4 0  9993
2 31024 099.1695 345.9155 0076861 249.5452 109.7457 14.17814370582950
Source of the keplerian elements: AFSPC